• In Deutschland
  • Länderverzeichnis
  • Für 7 Tage
  • Wassertemperatur
  • Satellitenkarten
  • Wetterkarte
  • Widgets
  • user-avatar
    Anmelden

    Stündliche Wetter Canberra

    Heute, 24 Juli, Montag

    Zeit Temperatur Niederschläge Wind Luftdruck Luftfeuchtigkeit
    00:00 +6°C° 0 mm 4 m/S 708 mmHg 84%
    01:00 +6°C° 0 mm 4 m/S 708 mmHg 85%
    02:00 +7°C° 0 mm 3 m/S 709 mmHg 87%
    03:00 +5°C° 0 mm 3 m/S 709 mmHg 88%
    04:00 +5°C° 0 mm 3 m/S 709 mmHg 90%
    05:00 +4°C° 0 mm 3 m/S 709 mmHg 91%
    06:00 +5°C° 0 mm 2 m/S 710 mmHg 92%
    07:00 +4°C° 0 mm 2 m/S 710 mmHg 93%
    08:00 +6°C° 0 mm 2 m/S 710 mmHg 86%
    09:00 +7°C° 0 mm 3 m/S 711 mmHg 79%
    10:00 +10°C° 0 mm 3 m/S 711 mmHg 70%
    11:00 +10°C° 0 mm 4 m/S 711 mmHg 67%
    12:00 +10°C° 0 mm 4 m/S 711 mmHg 64%
    13:00 +11°C° 0 mm 4 m/S 711 mmHg 62%
    14:00 +10°C° 0 mm 4 m/S 711 mmHg 63%
    15:00 +10°C° 0 mm 4 m/S 711 mmHg 65%
    16:00 +8°C° 0 mm 4 m/S 711 mmHg 66%
    17:00 +8°C° 0 mm 3 m/S 711 mmHg 72%
    18:00 +7°C° 0 mm 3 m/S 711 mmHg 78%
    19:00 +6°C° 0 mm 2 m/S 712 mmHg 84%
    20:00 +5°C° 0 mm 2 m/S 712 mmHg 86%
    21:00 +4°C° 0 mm 2 m/S 712 mmHg 88%
    22:00 +4°C° 0 mm 2 m/S 712 mmHg 91%
    23:00 +3°C° 0 mm 2 m/S 712 mmHg 91%

    Morgen, 25 Juli, Dienstag

    Zeit Temperatur Niederschläge Wind Luftdruck Luftfeuchtigkeit
    00:00 +3°C° 0 mm 2 m/S 712 mmHg 91%
    01:00 +4°C° 0 mm 1 m/S 712 mmHg 92%
    02:00 +4°C° 0 mm 1 m/S 712 mmHg 92%
    03:00 +4°C° 0 mm 1 m/S 712 mmHg 93%
    04:00 +4°C° 0 mm 1 m/S 711 mmHg 93%
    05:00 +3°C° 0 mm 2 m/S 712 mmHg 93%
    06:00 +3°C° 0 mm 2 m/S 712 mmHg 93%
    07:00 +3°C° 0 mm 2 m/S 712 mmHg 92%
    08:00 +5°C° 0 mm 2 m/S 712 mmHg 84%
    09:00 +8°C° 0 mm 3 m/S 712 mmHg 76%
    10:00 +10°C° 0 mm 4 m/S 713 mmHg 68%
    11:00 +11°C° 0 mm 4 m/S 712 mmHg 63%
    12:00 +13°C° 0 mm 4 m/S 712 mmHg 57%
    13:00 +14°C° 0 mm 5 m/S 711 mmHg 51%
    14:00 +14°C° 0 mm 5 m/S 711 mmHg 54%
    15:00 +14°C° 0 mm 4 m/S 710 mmHg 57%
    16:00 +13°C° 0 mm 4 m/S 709 mmHg 60%
    17:00 +12°C° 0 mm 4 m/S 709 mmHg 66%
    18:00 +11°C° 0 mm 3 m/S 709 mmHg 72%
    19:00 +9°C° 0 mm 3 m/S 709 mmHg 78%
    20:00 +10°C° 0,1 mm 4 m/S 709 mmHg 73%
    21:00 +9°C° 0,1 mm 5 m/S 709 mmHg 68%
    22:00 +10°C° 0,1 mm 6 m/S 709 mmHg 63%
    23:00 +9°C° 0,8 mm 5 m/S 709 mmHg 72%

    übermorgen, 26 Juli, Mittwoch

    Zeit Temperatur Niederschläge Wind Luftdruck Luftfeuchtigkeit
    00:00 +8°C° 0,8 mm 4 m/S 708 mmHg 81%
    01:00 +7°C° 0,8 mm 4 m/S 708 mmHg 90%
    02:00 +7°C° 0,4 mm 4 m/S 708 mmHg 90%
    03:00 +7°C° 0,4 mm 4 m/S 708 mmHg 91%
    04:00 +7°C° 0,4 mm 4 m/S 708 mmHg 91%
    05:00 +7°C° 0 mm 4 m/S 708 mmHg 91%
    06:00 +7°C° 0 mm 5 m/S 708 mmHg 90%
    07:00 +7°C° 0 mm 5 m/S 708 mmHg 90%
    08:00 +7°C° 0 mm 5 m/S 709 mmHg 84%
    09:00 +8°C° 0 mm 6 m/S 709 mmHg 79%
    10:00 +9°C° 0 mm 7 m/S 709 mmHg 73%
    11:00 +9°C° 0 mm 7 m/S 709 mmHg 69%
    12:00 +9°C° 0 mm 7 m/S 709 mmHg 65%
    13:00 +10°C° 0 mm 7 m/S 709 mmHg 60%
    14:00 +9°C° 0 mm 7 m/S 709 mmHg 62%
    15:00 +9°C° 0 mm 7 m/S 709 mmHg 63%
    16:00 +9°C° 0 mm 6 m/S 709 mmHg 64%
    17:00 +8°C° 0 mm 5 m/S 710 mmHg 69%
    18:00 +6°C° 0 mm 4 m/S 710 mmHg 74%
    19:00 +5°C° 0 mm 3 m/S 711 mmHg 79%
    20:00 +5°C° 0 mm 3 m/S 711 mmHg 83%
    21:00 +5°C° 0 mm 2 m/S 711 mmHg 87%
    22:00 +4°C° 0 mm 2 m/S 712 mmHg 91%
    23:00 +4°C° 0 mm 2 m/S 712 mmHg 93%

    27 Juli, Donnerstag

    Zeit Temperatur Niederschläge Wind Luftdruck Luftfeuchtigkeit
    00:00 +4°C° 0 mm 1 m/S 712 mmHg 94%
    01:00 +4°C° 0 mm 1 m/S 712 mmHg 95%
    02:00 +3°C° 0 mm 1 m/S 712 mmHg 96%
    03:00 +3°C° 0 mm 1 m/S 712 mmHg 96%
    04:00 +3°C° 0 mm 1 m/S 712 mmHg 96%
    05:00 +2°C° 0 mm 1 m/S 713 mmHg 96%
    06:00 +2°C° 0 mm 1 m/S 713 mmHg 96%
    07:00 +2°C° 0 mm 1 m/S 714 mmHg 96%
    08:00 +4°C° 0 mm 1 m/S 714 mmHg 86%
    09:00 +6°C° 0 mm 1 m/S 714 mmHg 76%
    10:00 +8°C° 0 mm 1 m/S 715 mmHg 66%
    11:00 +10°C° 0 mm 1 m/S 714 mmHg 59%
    12:00 +10°C° 0 mm 2 m/S 714 mmHg 52%
    13:00 +13°C° 0 mm 2 m/S 714 mmHg 44%
    14:00 +12°C° 0 mm 2 m/S 713 mmHg 46%
    15:00 +12°C° 0 mm 2 m/S 713 mmHg 48%
    16:00 +12°C° 0 mm 2 m/S 712 mmHg 50%
    17:00 +9°C° 0 mm 2 m/S 713 mmHg 60%
    18:00 +7°C° 0 mm 2 m/S 713 mmHg 71%
    19:00 +4°C° 0 mm 2 m/S 713 mmHg 81%
    20:00 +4°C° 0 mm 2 m/S 713 mmHg 80%
    21:00 +4°C° 0 mm 2 m/S 713 mmHg 80%
    22:00 +4°C° 0 mm 2 m/S 713 mmHg 80%
    23:00 +5°C° 0 mm 2 m/S 712 mmHg 78%

    28 Juli, Freitag

    Zeit Temperatur Niederschläge Wind Luftdruck Luftfeuchtigkeit
    00:00 +5°C° 0 mm 2 m/S 711 mmHg 76%
    01:00 +5°C° 0 mm 3 m/S 710 mmHg 74%
    02:00 +4°C° 0 mm 3 m/S 710 mmHg 74%
    03:00 +4°C° 0 mm 3 m/S 709 mmHg 73%
    04:00 +4°C° 0 mm 4 m/S 709 mmHg 73%
    05:00 +5°C° 0 mm 4 m/S 709 mmHg 71%
    06:00 +6°C° 0 mm 5 m/S 709 mmHg 70%
    07:00 +5°C° 0 mm 6 m/S 709 mmHg 68%
    08:00 +8°C° 0 mm 6 m/S 709 mmHg 64%
    09:00 +9°C° 0 mm 6 m/S 710 mmHg 61%
    10:00 +10°C° 0 mm 6 m/S 710 mmHg 57%
    11:00 +11°C° 0 mm 6 m/S 710 mmHg 51%
    12:00 +13°C° 0 mm 6 m/S 710 mmHg 44%
    13:00 +14°C° 0 mm 5 m/S 709 mmHg 38%
    14:00 +14°C° 0 mm 5 m/S 709 mmHg 40%
    15:00 +13°C° 0 mm 4 m/S 709 mmHg 42%
    16:00 +13°C° 0 mm 4 m/S 709 mmHg 44%
    17:00 +11°C° 0 mm 3 m/S 710 mmHg 53%
    18:00 +9°C° 0 mm 2 m/S 710 mmHg 62%
    19:00 +7°C° 0 mm 2 m/S 711 mmHg 71%
    20:00 +7°C° 0 mm 2 m/S 711 mmHg 71%
    21:00 +7°C° 0 mm 2 m/S 711 mmHg 70%
    22:00 +6°C° 0 mm 2 m/S 711 mmHg 70%
    23:00 +6°C° 0 mm 2 m/S 711 mmHg 69%

    29 Juli, Samstag

    Zeit Temperatur Niederschläge Wind Luftdruck Luftfeuchtigkeit
    00:00 +6°C° 0 mm 2 m/S 711 mmHg 68%
    01:00 +6°C° 0 mm 2 m/S 710 mmHg 67%
    02:00 +6°C° 0 mm 2 m/S 710 mmHg 68%
    03:00 +6°C° 0 mm 2 m/S 710 mmHg 69%
    04:00 +6°C° 0 mm 2 m/S 709 mmHg 71%
    05:00 +6°C° 0 mm 2 m/S 709 mmHg 75%
    06:00 +6°C° 0 mm 2 m/S 709 mmHg 79%
    07:00 +5°C° 0 mm 2 m/S 709 mmHg 83%
    08:00 +8°C° 0 mm 2 m/S 709 mmHg 72%
    09:00 +11°C° 0 mm 3 m/S 709 mmHg 62%
    10:00 +13°C° 0 mm 4 m/S 709 mmHg 51%
    11:00 +15°C° 0 mm 5 m/S 709 mmHg 47%
    12:00 +16°C° 0 mm 7 m/S 708 mmHg 43%
    13:00 +18°C° 0 mm 8 m/S 708 mmHg 39%
    14:00 +18°C° 0 mm 7 m/S 707 mmHg 40%
    15:00 +19°C° 0 mm 6 m/S 707 mmHg 42%
    16:00 +19°C° 0 mm 6 m/S 707 mmHg 43%
    17:00 +17°C° 0 mm 6 m/S 707 mmHg 44%
    18:00 +16°C° 0 mm 6 m/S 706 mmHg 45%
    19:00 +15°C° 0 mm 5 m/S 706 mmHg 47%
    20:00 +15°C° 0 mm 6 m/S 706 mmHg 45%
    21:00 +15°C° 0 mm 6 m/S 706 mmHg 43%
    22:00 +15°C° 0 mm 6 m/S 706 mmHg 41%
    23:00 +15°C° 0 mm 6 m/S 705 mmHg 41%
    Mehr zeigen